Snowfall_Accumulation
1.4 3.6 6.4 3.1 2.5 3.2 3.8 3.4 2.5 1.4 0.6 1.5 1.7 1.0 0.9 0.1 0.1 0.1 0.2 0.2 0.0 0.0 0.0 0.0 0.0 0.0 0.0 0.0 0.0 0.0 0.0 0.0 0.0 0.0 0.0 0.0 0.0 0.0 0.0 0.0 0.0 0.0 0.0 0.0
4.2 6.1 1.7 1.0 1.3 3.0 4.4 5.1 3.1 1.6 0.6 1.2 1.7 1.5 0.9 0.7 0.5 0.3 0.2 0.2 0.1 0.1 0.0 0.1 0.0 0.0 0.0 0.0 0.0 0.0 0.0 0.0 0.0 0.0 0.0 0.0 0.0 0.0 0.0 0.0 0.0 0.0 0.0 0.0
6.8 3.0 0.8 1.5 3.2 5.4 5.0 4.8 4.0 3.4 1.8 1.2 2.2 3.0 1.2 0.7 0.6 0.3 0.2 0.2 0.3 0.2 0.1 0.2 0.1 0.0 0.0 0.0 0.0 0.0 0.0 0.0 0.0 0.0 0.0 0.0 0.0 0.0 0.0 0.0 0.0 0.0 0.0 0.0
3.9 1.3 1.0 2.1 3.3 5.0 5.5 2.3 2.7 3.4 5.2 5.8 4.4 7.9 3.2 1.4 0.8 0.4 0.3 0.4 0.5 0.5 0.5 0.3 0.3 0.2 0.1 0.0 0.0 0.0 0.0 0.0 0.0 0.0 0.0 0.0 0.0 0.0 0.0 0.0 0.2 0.0 0.0 0.0
6.1 2.0 2.1 3.7 2.0 3.0 4.2 1.3 2.7 4.2 5.8 7.6 3.9 6.7 4.5 2.2 1.9 1.4 0.7 0.6 0.8 0.8 0.8 0.8 0.6 0.3 0.1 0.0 0.0 0.0 0.0 0.0 0.0 0.0 0.0 0.0 0.0 0.0 0.0 0.0 0.1 0.0 0.1 0.1
3.0 1.4 1.9 2.3 0.8 1.3 2.2 1.9 2.9 4.6 9.1 13.7 4.7 5.8 5.0 4.1 4.1 2.4 1.0 1.1 1.3 1.4 1.2 1.0 0.6 0.4 0.1 0.1 0.1 0.1 0.1 0.0 0.0 0.0 0.0 0.0 0.0 0.0 0.0 0.0 0.1 0.0 0.1 0.1
8.6 4.2 2.0 1.1 3.5 3.1 5.8 14.9 24.8 24.7 21.1 10.6 2.9 4.2 4.7 3.0 2.0 1.9 2.0 1.8 1.7 1.7 1.6 1.4 1.0 0.9 0.4 0.2 0.2 0.1 0.1 0.1 0.0 0.0 0.1 0.1 0.0 0.0 0.0 0.0 0.1 0.1 0.1 0.0
11.9 10.9 3.6 1.7 3.4 6.7 7.1 11.4 18.1 16.0 9.9 5.4 3.4 4.4 4.6 2.2 1.3 1.3 1.7 1.7 1.5 1.5 1.6 1.6 1.5 1.2 0.8 0.6 0.5 0.3 0.3 0.3 0.3 0.0 0.1 0.0 0.1 0.0 0.1 0.0 0.0 0.1 0.1 0.1
10.4 9.4 1.6 1.0 1.4 3.3 8.1 9.3 7.8 12.9 8.4 5.7 4.6 3.8 3.0 1.8 1.1 1.1 1.5 1.4 1.5 1.6 1.7 1.5 1.4 1.2 1.2 1.0 0.9 0.7 0.5 0.3 0.2 0.1 0.5 0.1 0.0 0.0 0.1 0.1 0.0 0.1 0.0 0.1
9.2 11.0 4.3 0.9 1.6 2.1 3.4 5.4 10.7 17.4 14.1 8.3 4.7 3.6 4.7 4.2 3.1 1.9 1.6 1.6 1.7 1.6 1.4 1.2 1.2 1.3 1.3 1.0 1.0 0.8 0.6 0.8 0.4 0.3 0.4 0.5 0.2 0.2 0.1 0.1 0.1 0.1 0.0 0.1
6.0 12.7 8.9 5.0 7.7 7.4 6.4 9.7 12.8 14.0 11.2 10.0 7.2 6.0 5.4 4.3 3.5 2.7 1.9 1.8 1.9 1.6 1.4 1.3 1.1 1.2 1.3 1.1 0.6 0.7 0.6 0.9 0.6 0.4 0.3 0.4 0.2 0.3 0.1 0.1 0.1 0.1 0.0 0.1
5.5 11.5 11.3 6.0 1.8 2.1 4.8 7.7 10.5 15.4 11.5 8.2 7.9 7.7 3.8 3.3 2.9 2.5 1.9 1.6 1.7 1.6 1.3 1.3 1.1 0.7 0.8 1.2 1.0 0.8 0.6 0.8 0.8 0.7 0.5 0.4 0.3 0.3 0.3 0.2 0.1 0.1 0.1 0.1
7.5 13.6 14.1 8.6 4.8 2.9 7.0 6.0 7.1 10.4 13.1 10.8 9.6 8.0 3.4 2.5 2.2 2.2 1.9 1.6 1.6 1.3 1.4 1.3 1.0 0.8 0.7 0.9 1.2 1.0 0.7 0.9 0.9 1.0 1.0 0.8 0.3 0.2 0.3 0.4 0.2 0.1 0.1 0.1
5.3 11.6 11.4 10.2 8.1 7.5 7.8 6.0 6.0 12.3 16.7 10.4 7.2 6.8 4.6 3.1 2.7 2.5 1.8 1.8 1.8 1.7 1.2 1.3 1.2 1.2 0.7 0.7 0.9 1.2 0.7 0.6 0.7 0.9 1.0 1.1 1.1 0.4 0.4 0.4 0.4 0.3 0.2 0.2
4.7 12.2 7.5 4.9 2.9 3.9 4.8 4.2 4.6 8.7 9.8 10.5 6.6 5.3 4.8 4.0 3.6 2.8 1.9 1.7 1.8 1.5 1.4 1.1 1.1 1.2 0.9 0.7 0.7 0.8 0.9 0.5 0.6 0.7 0.7 0.9 1.2 0.6 0.6 0.5 0.6 0.7 0.4 0.2
5.4 9.5 7.7 5.0 2.6 2.9 3.6 2.8 3.0 4.5 4.8 6.3 5.0 4.8 3.2 2.9 2.4 2.2 1.9 1.8 1.9 1.9 1.7 1.3 0.9 1.1 1.3 1.3 1.2 1.1 0.9 0.9 0.8 0.7 0.6 0.8 1.1 0.6 0.8 0.9 0.8 0.6 0.9 0.7
5.9 8.2 10.4 7.0 2.9 4.2 6.8 4.2 3.8 4.4 4.5 5.3 6.5 5.1 3.1 3.1 3.3 3.6 2.8 2.0 2.0 1.9 1.6 1.4 1.2 1.2 1.0 1.2 1.2 1.3 1.3 1.1 1.0 0.7 0.6 0.7 0.8 0.7 0.6 0.9 1.4 0.9 0.9 0.9
5.3 7.4 11.3 8.7 6.3 8.8 5.1 2.8 2.7 3.6 4.4 4.3 4.6 3.7 3.3 3.3 3.8 3.6 2.6 2.3 2.2 1.7 1.8 1.4 1.5 1.2 1.0 0.8 1.0 1.1 1.3 1.2 1.0 0.8 0.7 0.6 0.6 0.8 1.0 1.5 1.9 2.0 1.6 1.5
3.2 6.4 12.5 11.2 8.8 5.3 2.5 2.1 3.2 4.0 4.6 3.5 3.4 3.1 2.6 2.3 2.4 2.7 2.8 1.8 2.1 2.0 1.6 1.4 1.5 1.4 0.9 0.8 0.9 1.1 1.3 1.3 1.5 1.5 1.3 1.5 1.3 1.3 1.9 2.4 2.6 2.7 2.2 2.0
3.2 5.7 12.4 12.2 10.2 6.4 3.8 1.9 2.1 3.3 5.5 2.8 2.8 3.1 2.9 2.3 3.3 4.0 3.3 1.6 1.6 1.3 1.3 1.5 1.4 1.2 1.1 1.1 1.0 1.1 1.4 1.4 2.0 1.7 1.7 1.4 1.6 1.7 1.8 2.4 2.4 2.6 2.7 2.3
5.5 9.3 12.3 10.4 9.8 5.2 3.6 2.0 1.6 5.2 8.9 3.1 3.0 3.4 3.4 3.7 4.5 4.0 2.8 1.9 1.8 1.5 1.4 1.1 1.2 1.2 1.6 1.4 1.3 1.6 2.0 2.3 2.2 1.8 1.5 1.6 1.2 1.8 1.7 1.7 2.1 2.0 2.7 2.5
5.2 6.7 7.2 7.6 9.9 6.7 3.3 2.9 5.5 6.6 3.9 3.2 3.1 3.3 3.7 3.4 3.0 3.1 2.5 2.5 2.1 2.2 2.0 1.9 1.6 1.7 1.8 1.2 1.4 1.8 2.0 2.3 2.3 1.9 1.7 1.7 1.9 1.9 1.4 1.4 1.6 1.7 1.6 1.5
5.4 6.6 6.8 7.0 7.8 6.3 4.9 5.8 5.8 4.8 4.5 3.9 3.7 3.5 3.6 3.4 3.4 3.3 3.3 3.2 2.9 2.7 2.7 2.4 2.2 2.1 1.7 1.7 1.8 2.4 2.7 2.7 2.0 2.0 2.1 1.8 1.7 1.6 1.3 1.3 1.1 1.2 1.2 1.4
4.1 4.0 5.1 5.6 5.4 4.8 4.2 3.8 3.9 4.1 4.3 3.8 3.7 3.7 3.5 3.7 3.6 3.6 3.7 3.6 3.5 3.4 3.4 3.1 2.7 2.5 2.6 2.5 2.2 2.3 2.3 1.8 1.3 1.7 1.8 1.6 1.5 1.6 1.6 0.9 1.1 1.4 1.6 1.9
4.0 3.8 4.5 4.8 4.2 3.2 2.8 3.0 3.2 2.9 2.6 2.7 2.7 2.9 3.3 3.4 3.6 3.6 3.7 3.8 3.7 3.5 3.5 3.4 3.5 3.3 3.3 3.1 2.9 2.5 2.5 2.0 1.9 2.0 1.9 1.7 1.8 2.2 1.9 1.7 1.5 1.8 2.0 2.1
4.5 4.9 5.5 5.4 4.0 3.9 3.6 3.1 2.8 2.7 2.8 2.8 2.6 2.6 2.8 3.0 3.5 3.4 3.5 3.7 3.6 3.4 3.2 3.2 3.3 3.4 3.4 3.1 3.3 3.0 2.7 2.6 2.4 2.3 2.2 2.1 2.2 2.3 2.1 2.1 2.2 1.3 1.5 1.3